Starlink 3564

operational
NORAD ID: 52302 Int'l Des: 2022-041 Owner: SPXS Country: US Constellation: starlink
LEOCIRCULAR

About Starlink 3564

Description loading...

Live Position

Loading 3D Globe...

Upcoming Passes

Altitude History

Altitude vs Time

uPlot chart will show altitude changes over time

Two-Line Element Set

1 52302U 22041AT 25305.27427306 .00000026 00000-0 19719-4 0 9996
2 52302 53.2177 305.5982 0001397 94.1683 265.9469 15.08835587195255
Epoch: Nov 1, 2025 • Age: 16 hours

Current Status

Altitude 552.9 km
Velocity 7.58 km/s
Sub-Earth Point -38.02°S, 108.22°W
Launch Date Apr 21, 2022
Age 3.5 years
Type internet

Technical Details

Classification Payload
Mass 297.00 kg
Dry Mass 275.00 kg
Total Mass 297.00 kg
Length 0.20 m
Diameter 2.80 m
Span 9.00 m
Shape Box + pan
Manufacturer SPXS
Bus Type Starlink
Phase Status In Orbit
Owner/State SPXS/US

Large Constellations

Loading constellations...